Tracking 17887 objects as of 11-December-2016
HD Live streaming from Space Station
objects crossing your sky now

BONUM 1

Track BONUM 1 now!
BONUM 1 is classified as:


NORAD ID: 25546
Int'l Code: 1998-068A
Perigee: 36,119.7 km
Apogee: 36,166.1 km
Inclination: 3.9 °
Period: 1,454.0 minutes
Semi major axis: 42513 km
RCS: 0.003 m2 (small)
Launch date: November 22, 1998
Source: Commonwealth of Independent States (former USSR) (CIS)
Launch site: AIR FORCE EASTERN TEST RANGE (AFETR)

Television broadcasting; 8 Ku-band, Siberia or Europe, selected.
Your satellite tracking list
Your tracking list is empty





NASA's NSSDC Master Catalog

Two Line Element Set (TLE):
1 25546U 98068A   16345.90936487 -.00000061  00000-0  00000+0 0  9995
2 25546   3.8621  68.2195 0005457 224.3900 135.2392  0.99039057 66117
Source of the keplerian elements: AFSPC